Welcome to Des Moines Iowa Weather. I am an independent private personal weather station on the Northwest Side of Des Moines, Iowa. Just East of Windsor Heights and just West of Glendale . This site is also mobile friendly.

There are no active watches, warnings or advisories


Visit our other weather sites:

Historical Data

Weather Station Setup



Weather Underground History page Text

Daily Summary for February 4, 2017 Units:  English    Metric   Both
« Previous Day
Next Day »
Daily Weekly Monthly Yearly Custom
  High: Low: Average:
Temperature: 44.1 °F 18.0 °F 31.7 °F
Dew Point: 29.0 °F 8.0 °F 19.5 °F
Humidity: 81 % 47 % 62 %
Wind Speed: 8.0 mph 0.0 mph 1.7 mph
Wind Gust: 18.0 mph - -
Wind:- - SSW
Pressure: 30.45 in 29.83 in -
Precipitation: 0.00 in    
Historical Graphs
 
 
Tabular Data for February 4, 2017
Time Temperature Dew Point Pressure Wind Wind Speed Wind Gust Humidity Rainfall Rate (Hourly)
00:14 18.0 °F 8.0 °F 30.45 in Calm   1.0 mph 65 % 0.00 in
00:29 18.3 °F 8.0 °F 30.44 in Calm   2.0 mph 64 % 0.00 in
00:44 18.5 °F 8.0 °F 30.43 in Calm   1.0 mph 64 % 0.00 in
00:59 18.5 °F 8.0 °F 30.43 in Calm     64 % 0.00 in
01:14 18.4 °F 8.0 °F 30.42 in Calm     65 % 0.00 in
01:29 18.3 °F 9.0 °F 30.41 in Calm   2.0 mph 66 % 0.00 in
01:44 18.8 °F 9.0 °F 30.40 in Calm   3.0 mph 66 % 0.00 in
01:59 19.1 °F 9.0 °F 30.39 in Calm   2.0 mph 66 % 0.00 in
02:14 19.5 °F 9.0 °F 30.38 in Calm   3.0 mph 65 % 0.00 in
02:29 19.7 °F 10.0 °F 30.38 in Calm   3.0 mph 65 % 0.00 in
02:44 19.9 °F 10.0 °F 30.37 in West 2.0 mph 4.0 mph 65 % 0.00 in
02:59 20.1 °F 10.0 °F 30.36 in Calm   3.0 mph 66 % 0.00 in
03:14 20.3 °F 11.0 °F 30.35 in SW 2.0 mph 5.0 mph 66 % 0.00 in
03:29 20.5 °F 11.0 °F 30.34 in Calm   4.0 mph 67 % 0.00 in
03:45 21.1 °F 12.0 °F 30.32 in Calm   4.0 mph 68 % 0.00 in
04:00 21.6 °F 13.0 °F 30.31 in South 1.0 mph 6.0 mph 68 % 0.00 in
04:15 22.0 °F 13.0 °F 30.30 in SSE 1.0 mph 5.0 mph 68 % 0.00 in
04:30 22.1 °F 13.0 °F 30.29 in SSW 1.0 mph 4.0 mph 69 % 0.00 in
04:45 22.2 °F 14.0 °F 30.29 in Calm   3.0 mph 70 % 0.00 in
05:00 22.5 °F 14.0 °F 30.28 in Calm   4.0 mph 70 % 0.00 in
05:15 22.8 °F 14.0 °F 30.28 in WSW 2.0 mph 4.0 mph 70 % 0.00 in
05:30 23.3 °F 15.0 °F 30.28 in WSW 1.0 mph 7.0 mph 69 % 0.00 in
05:45 23.8 °F 15.0 °F 30.26 in SW 1.0 mph 7.0 mph 68 % 0.00 in
06:00 24.2 °F 15.0 °F 30.25 in South 1.0 mph 8.0 mph 67 % 0.00 in
06:15 24.4 °F 15.0 °F 30.25 in SSW 2.0 mph 7.0 mph 67 % 0.00 in
06:30 24.5 °F 15.0 °F 30.23 in SSW 1.0 mph 7.0 mph 66 % 0.00 in
06:45 24.7 °F 14.0 °F 30.23 in SW 2.0 mph 8.0 mph 65 % 0.00 in
07:00 24.9 °F 14.0 °F 30.22 in ESE 2.0 mph 6.0 mph 64 % 0.00 in
07:15 25.1 °F 14.0 °F 30.20 in Calm   7.0 mph 63 % 0.00 in
07:30 25.2 °F 14.0 °F 30.20 in SSW 2.0 mph 5.0 mph 62 % 0.00 in
07:45 25.4 °F 14.0 °F 30.20 in SSE 2.0 mph 7.0 mph 61 % 0.00 in
08:00 25.6 °F 14.0 °F 30.18 in South 3.0 mph 6.0 mph 61 % 0.00 in
08:15 25.8 °F 14.0 °F 30.18 in South 4.0 mph 8.0 mph 60 % 0.00 in
08:30 26.2 °F 14.0 °F 30.17 in South 2.0 mph 6.0 mph 60 % 0.00 in
08:45 26.5 °F 14.0 °F 30.16 in SSW 2.0 mph 7.0 mph 60 % 0.00 in
09:00 26.9 °F 14.0 °F 30.16 in SSW 2.0 mph 9.0 mph 59 % 0.00 in
09:16 27.3 °F 15.0 °F 30.14 in SSE 4.0 mph 10.0 mph 59 % 0.00 in
09:31 27.8 °F 15.0 °F 30.12 in SSW 3.0 mph 6.0 mph 58 % 0.00 in
09:46 29.2 °F 16.0 °F 30.11 in South 2.0 mph 9.0 mph 58 % 0.00 in
10:01 31.3 °F 16.0 °F 30.10 in South 2.0 mph 8.0 mph 53 % 0.00 in
10:16 33.0 °F 17.0 °F 30.09 in SSW 2.0 mph 9.0 mph 52 % 0.00 in
10:31 33.6 °F 17.0 °F 30.08 in SSW 4.0 mph 11.0 mph 50 % 0.00 in
10:46 33.9 °F 17.0 °F 30.07 in South 3.0 mph 12.0 mph 50 % 0.00 in
11:01 34.0 °F 17.0 °F 30.05 in South 4.0 mph 10.0 mph 50 % 0.00 in
11:16 35.0 °F 18.0 °F 30.03 in WSW 4.0 mph 13.0 mph 50 % 0.00 in
11:31 36.5 °F 19.0 °F 30.01 in SSW 7.0 mph 11.0 mph 49 % 0.00 in
11:46 37.5 °F 20.0 °F 29.99 in South 4.0 mph 15.0 mph 49 % 0.00 in
12:01 38.1 °F 20.0 °F 29.97 in SW 4.0 mph 16.0 mph 49 % 0.00 in
12:16 38.5 °F 21.0 °F 29.96 in South 4.0 mph 15.0 mph 50 % 0.00 in
12:31 39.3 °F 21.0 °F 29.94 in South 3.0 mph 18.0 mph 48 % 0.00 in
12:46 39.4 °F 21.0 °F 29.92 in South 4.0 mph 13.0 mph 48 % 0.00 in
13:01 40.1 °F 22.0 °F 29.91 in South 7.0 mph 12.0 mph 48 % 0.00 in
13:16 41.0 °F 22.0 °F 29.89 in SW 4.0 mph 14.0 mph 47 % 0.00 in
13:31 42.1 °F 24.0 °F 29.88 in SSW 3.0 mph 10.0 mph 49 % 0.00 in
13:47 43.2 °F 24.0 °F 29.87 in South 1.0 mph 8.0 mph 47 % 0.00 in
14:02 43.0 °F 24.0 °F 29.86 in NE 8.0 mph 10.0 mph 47 % 0.00 in
14:17 42.8 °F 24.0 °F 29.86 in WSW 2.0 mph 15.0 mph 48 % 0.00 in
14:32 43.6 °F 25.0 °F 29.85 in SSW 4.0 mph 11.0 mph 48 % 0.00 in
14:47 44.1 °F 25.0 °F 29.85 in SSW 2.0 mph 7.0 mph 48 % 0.00 in
15:02 43.2 °F 25.0 °F 29.84 in SE 4.0 mph 10.0 mph 49 % 0.00 in
15:17 43.3 °F 25.0 °F 29.84 in SW 2.0 mph 8.0 mph 49 % 0.00 in
15:33 43.9 °F 26.0 °F 29.84 in SSW 2.0 mph 10.0 mph 50 % 0.00 in
15:47 43.8 °F 27.0 °F 29.84 in SSW 1.0 mph 11.0 mph 51 % 0.00 in
16:02 43.9 °F 27.0 °F 29.83 in SSW 1.0 mph 6.0 mph 51 % 0.00 in
16:17 43.8 °F 27.0 °F 29.83 in Calm   7.0 mph 51 % 0.00 in
16:32 43.5 °F 27.0 °F 29.83 in SSW 1.0 mph 6.0 mph 52 % 0.00 in
16:47 43.0 °F 26.0 °F 29.83 in South 3.0 mph 7.0 mph 52 % 0.00 in
17:02 42.6 °F 27.0 °F 29.83 in Calm   6.0 mph 54 % 0.00 in
17:17 42.1 °F 27.0 °F 29.83 in Calm   3.0 mph 55 % 0.00 in
17:32 40.9 °F 27.0 °F 29.83 in Calm   2.0 mph 58 % 0.00 in
17:47 40.1 °F 27.0 °F 29.84 in Calm   3.0 mph 60 % 0.00 in
18:02 39.9 °F 27.0 °F 29.84 in Calm     61 % 0.00 in
18:17 39.4 °F 27.0 °F 29.84 in Calm   2.0 mph 61 % 0.00 in
18:32 38.7 °F 27.0 °F 29.85 in Calm   1.0 mph 62 % 0.00 in
18:47 38.0 °F 27.0 °F 29.85 in Calm     64 % 0.00 in
19:02 37.3 °F 26.0 °F 29.85 in Calm   2.0 mph 65 % 0.00 in
19:17 36.9 °F 27.0 °F 29.86 in Calm     67 % 0.00 in
19:32 36.5 °F 27.0 °F 29.86 in Calm   3.0 mph 68 % 0.00 in
19:47 36.2 °F 27.0 °F 29.86 in Calm   1.0 mph 68 % 0.00 in
20:02 35.7 °F 26.0 °F 29.86 in Calm     69 % 0.00 in
20:17 35.0 °F 26.0 °F 29.86 in Calm     69 % 0.00 in
20:32 34.3 °F 25.0 °F 29.86 in Calm     70 % 0.00 in
20:47 33.6 °F 25.0 °F 29.86 in Calm     72 % 0.00 in
21:02 33.1 °F 26.0 °F 29.85 in Calm   1.0 mph 74 % 0.00 in
21:17 32.8 °F 26.0 °F 29.86 in Calm     75 % 0.00 in
21:32 32.6 °F 26.0 °F 29.85 in Calm   2.0 mph 76 % 0.00 in
21:47 32.4 °F 26.0 °F 29.86 in Calm     77 % 0.00 in
22:03 32.0 °F 25.0 °F 29.87 in Calm     76 % 0.00 in
22:17 31.7 °F 26.0 °F 29.87 in SW 1.0 mph 2.0 mph 79 % 0.00 in
22:32 32.7 °F 28.0 °F 29.87 in WNW 1.0 mph 4.0 mph 81 % 0.00 in
22:47 33.8 °F 28.0 °F 29.87 in NW 8.0 mph 10.0 mph 80 % 0.00 in
23:02 34.5 °F 29.0 °F 29.88 in NW 2.0 mph 8.0 mph 79 % 0.00 in
23:17 34.6 °F 28.0 °F 29.88 in West 8.0 mph 11.0 mph 78 % 0.00 in
23:32 34.4 °F 28.0 °F 29.89 in NW 2.0 mph 10.0 mph 78 % 0.00 in
23:47 34.1 °F 28.0 °F 29.90 in NW 5.0 mph 10.0 mph 78 % 0.00 in
Des Moines Weather and Climate
Compliments of Weather Underground - 3 mb

Script developed by  Jim McMurry - jmcmurry@mwt.net Adapted for the template by  Wim van der Kuil - Leuven-Template.eu

You find our weather info also at:

Weather Underground

Equipment we use:

Weather-station
Davis VP2 Plus

Weather-program
Davis Weatherlink.Com

Weather-server
iMac (Retina 4K, 21.5-inch, Late 2015)

Provider
Hostmonster.com

Davis VP2 Plus

Davis Weatherlink.Com

iMac (Retina 4K, 21.5-inch, Late 2015)

Hostmonster.com